Regional Weather Roundup
Issued by NWS Sioux Falls, SD

Home | Current Version | Previous Version | Graphics & Text | Print | Product List | Glossary Off
Versions: 1 2 3 4 5 6 7 8 9 10 11 12 13 14 15 16 17 18 19 20 21 22 23 24 25 26 27 28 29 30 31 32 33 34 35 36 37 38 39 40 41 42 43 44 45 46 47 48 49 50

000
ASUS43 KFSD 272002
RWRFSD

WEATHER ROUNDUP FOR SE SOUTH DAKOTA/SW MINNESOTA/NW IOWA
NATIONAL WEATHER SERVICE SIOUX FALLS SD
300 PM CDT MON JUL 27 2015

NOTE: "FAIR" INDICATES FEW OR NO CLOUDS BELOW 12,000 FEET WITH NO
SIGNIFICANT WEATHER AND OR OBSTRUCTIONS TO VISIBILITY.


SDZ038>040-050-052>070-272100-
SOUTHEAST SOUTH DAKOTA

CITY           SKY/WX    TMP DP  RH WIND       PRES   REMARKS
BROOKINGS      SUNNY     86  68  54 S17       29.87F
CHAMBERLAIN    MOSUNNY   89  72  57 SE17G23   29.76S HX  96
HURON          MOSUNNY   89  73  59 S18G29    29.78S HX  97
MADISON        FAIR      84  70  61 S17G24    29.86F
MITCHELL       MOSUNNY   86  71  60 SE24G31   29.80F
SIOUX FALLS    MOSUNNY   84  69  60 S22       29.85F
WINNER         FAIR      92  64  39 S17G32    29.76F
YANKTON        PTSUNNY   86  75  70 SE21      29.81F HX  95
$$

MNZ071-072-080-081-089-090-097-098-272100-
SOUTHWEST MINNESOTA

CITY           SKY/WX    TMP DP  RH WIND       PRES   REMARKS
FAIRMONT       CLOUDY    81  70  69 SE18G25   29.91S
JACKSON        PTSUNNY   82  70  65 SE14G24   29.92F
LUVERNE        SUNNY     86  68  54 SE8       29.88F
MARSHALL       MOSUNNY   84  72  65 S15G23    29.88S
MONTEVIDEO     MOSUNNY   88  75  66 S14       29.88F HX  97
PIPESTONE      SUNNY     84  66  54 S13       29.88F
REDWOOD FALLS  PTSUNNY   82  74  76 SE17G23   29.88S
TRACY          MOSUNNY   84  75  74 SE13      29.89S
WINDOM         PTSUNNY   82  70  65 SE18      29.90S
WORTHINGTON    MOSUNNY   81  70  69 SE13G20   29.90F
$$

IAZ001>003-012>014-020>022-031-032-NEZ013-014-SDZ071-272100-
NORTHWEST IOWA

CITY           SKY/WX    TMP DP  RH WIND       PRES   REMARKS
DENISON        MOSUNNY   79  72  78 SE12G22   29.88F
ESTHERVILLE    CLOUDY    79  71  76 SE13      29.91F
SIOUX CITY     MOSUNNY   84  71  65 S17G24    29.86F
SPENCER        PTSUNNY   83  71  67 SE9       29.90S
$$

ABBREVIATIONS USED IN REMARKS
   TC - TEMPERATURE IN CELSIUS
  WCI - WIND CHILL INDEX
   HX - HEAT INDEX
  VSB - VISIBILITY




USA.gov is the U.S. government's official web portal to all federal, state and local government web resources and services.